Regional Weather Roundup
Issued by NWS

Home | Current Version | Previous Version | Text Only | Print | Product List | Glossary Off
Versions: 1 2 3 4 5 6 7 8 9 10 11 12 13 14 15 16 17 18 19 20 21 22 23 24 25 26 27 28 29 30 31 32 33 34 35 36 37 38 39 40 41 42 43 44 45 46 47 48 49 50

000
ASUS44 KMEG 181810
RWRTN
TENNESSEE HOURLY STATE WEATHER ROUNDUP
NATIONAL WEATHER SERVICE MEMPHIS TN
100 PM CDT FRI APR 18 2014

TNZ002-004-019-021-049-052-054-088>092-181900-
WEST TENNESSEE

CITY           SKY/WX    TMP DP  RH WIND       PRES   REMARKS
MEMPHIS INTL   CLOUDY    68  50  52 E6        30.22F
NWS MEMPHIS      N/A     68 N/A N/A MISG        N/A
JACKSON        PTSUNNY   67  48  50 NE3       30.25F
DYERSBURG      PTSUNNY   70  46  43 CALM      30.26F
UNION CITY     SUNNY     70  50  49 N8        30.24F
PARIS          CLOUDY    65  48  53 CALM      30.26F
LEXINGTON      SUNNY     70  46  43 VRB7      30.24F
SAVANNAH       CLOUDY    67  47  48 SE3       30.25
$$

TNZ008-025-027-028-033-062-065-066-181900-
NORTH MIDDLE TENNESSEE

CITY           SKY/WX    TMP DP  RH WIND       PRES   REMARKS
NASHVILLE      CLOUDY    67  43  41 CALM      30.28F
DICKSON        CLOUDY    63  41  45 SE3       30.27F
PORTLAND         N/A     66  43  42 CALM      30.27F
CLARKSVILLE    CLOUDY    68  48  48 VRB3      30.26F
SMYRNA         CLOUDY    67  43  41 CALM      30.28F
MURFREESBORO   CLOUDY    66  42  41 CALM      30.27F
COOKEVILLE     MOSUNNY   66  43  42 CALM      30.28F
LIVINGSTON     CLOUDY    64  42  44 NE5       30.29F
GALLATIN       CLOUDY    66  44  45 CALM      30.30F
CROSSVILLE     CLOUDY    60  35  39 E6        30.30F
$$

TNZ061-075-076-078-094-096-097-181900-
SOUTH MIDDLE TENNESSEE

CITY           SKY/WX    TMP DP  RH WIND       PRES   REMARKS
LEWISBURG      CLOUDY    63  42  46 N3        30.27F
FAYETTEVILLE   CLOUDY    61  41  47 E6        30.26F
TULLAHOMA      SUNNY     63  39  42 NE3       30.27F
WINCHESTER     SUNNY     63  41  45 VRB7      30.26F
MCMINNVILLE    SUNNY     64  43  45 E5        30.28F
COLUMBIA       PTSUNNY   66  52  59 CALM      30.25F
SHELBYVILLE    CLOUDY    64  45  48 VRB3      30.27F
$$

TNZ017-018-042-046-047-181900-
NORTHEAST TENNESSEE

CITY           SKY/WX    TMP DP  RH WIND       PRES   REMARKS
TRI CITIES     CLOUDY    58  31  35 CALM      30.32F
ELIZABETHTON   CLEAR     55  30  38 CALM      30.32F
$$

TNZ012-013-036-069-073-074-181900-
CENTRAL EAST TENNESSEE

CITY           SKY/WX    TMP DP  RH WIND       PRES   REMARKS
KNOXVILLE      CLOUDY    60  38  43 NE6       30.28F
OAK RIDGE      CLOUDY    62  36  37 E5        30.31F
$$

TNZ083-085-099-181900-
SOUTHEAST TENNESSEE

CITY           SKY/WX    TMP DP  RH WIND       PRES   REMARKS
CHATTANOOGA    CLOUDY    61  39  44 NE8       30.28F
$$

SKY/WX REPORTED AS FAIR MEANS FEW OR NO CLOUDS BELOW
12 THOUSAND FEET.




USA.gov is the U.S. government's official web portal to all federal, state and local government web resources and services.